DW8500 Weather Reports


Display with metric or nautical units.
time (UTC)temp
F
wind
direction
speed
MPH
gust
MPH
rain 1hr
in
rain 24hr
in
rain mn
in
humidity
%
barometer
mb
20260903171343 69 105 0.0 0.0 0.00 0.02 0.02 59 1011.0
20260903170839 69 105 0.0 0.0 0.00 0.02 0.02 59 1011.0
20260903170338 68 105 0.0 0.0 0.00 0.02 0.02 59 1011.0
20260903170020 68 105 0.0 0.0 0.00 0.02 0.02 59 1010.6
20260903165915 68 105 0.0 0.0 0.00 0.02 0.02 59 1010.9
20260903165349 68 105 0.0 1.0 0.00 0.02 0.02 59 1011.0
20260903164846 69 105 0.0 1.0 0.00 0.02 0.02 59 1010.9
20260903164550 68 105 0.0 1.0 0.00 0.02 0.02 58 1010.6
20260903164346 69 105 0.0 1.0 0.00 0.02 0.02 58 1011.0
20260903163840 69 105 0.0 1.0 0.00 0.02 0.02 58 1011.1
20260903163340 69 225 0.0 1.0 0.00 0.02 0.02 58 1011.1
20260903163037 68 282 0.0 0.0 0.00 0.02 0.02 59 1010.7
20260903162836 69 287 0.0 0.0 0.00 0.02 0.02 58 1011.0
20260903162335 69 287 0.0 1.0 0.00 0.02 0.02 59 1010.9
20260903161845 69 287 0.0 1.0 0.00 0.02 0.02 59 1010.9
20260903161546 68 286 0.0 1.0 0.00 0.02 0.02 59 1010.6
20260903161345 68 286 0.0 1.0 0.00 0.02 0.02 59 1011.0
20260903160839 68 250 0.0 1.0 0.00 0.02 0.02 59 1011.1
20260903160339 68 122 0.0 1.0 0.00 0.02 0.02 59 1011.1
20260903160105 67 98 0.0 1.0 0.00 0.02 0.02 60 1010.8
20260903155851 67 98 0.0 2.0 0.00 0.02 0.02 60 1011.2
20260903155409 67 245 0.0 2.0 0.00 0.02 0.02 60 1011.1
20260903154846 67 110 0.0 2.0 0.00 0.02 0.02 60 1011.1
20260903154547 66 269 0.0 1.0 0.00 0.02 0.02 61 1010.8
20260903154346 67 279 0.0 1.0 0.00 0.02 0.02 61 1011.2
20260903153842 66 162 0.0 0.0 0.00 0.02 0.02 61 1011.3
20260903153342 66 176 0.0 0.0 0.00 0.02 0.02 61 1011.3
20260903153056 66 198 0.0 0.0 0.00 0.02 0.02 61 1011.0
20260903152854 66 198 0.0 0.0 0.00 0.02 0.02 61 1011.4
20260903152353 66 175 0.0 0.0 0.00 0.02 0.02 61 1011.4
20260903151849 65 175 0.0 0.0 0.00 0.02 0.02 61 1011.6
20260903151549 65 174 0.0 0.0 0.00 0.02 0.02 61 1011.2
20260903151348 65 174 0.0 0.0 0.00 0.02 0.02 61 1011.6
20260903150843 65 175 0.0 0.0 0.00 0.02 0.02 61 1011.7
20260903150343 65 175 0.0 0.0 0.00 0.02 0.02 61 1011.7
20260903150043 65 175 0.0 0.0 0.00 0.02 0.02 61 1011.4
20260903145842 65 174 0.0 0.0 0.00 0.02 0.02 61 1011.7
20260903145340 65 174 0.0 0.0 0.00 0.02 0.02 62 1011.6
20260903144857 65 174 0.0 0.0 0.00 0.02 0.02 62 1011.6
20260903144538 64 244 0.0 0.0 0.00 0.02 0.02 62 1011.3
20260903144336 65 244 0.0 0.0 0.00 0.02 0.02 62 1011.7
20260903143851 65 244 0.0 0.0 0.00 0.02 0.02 61 1011.8
20260903143349 65 245 0.0 0.0 0.00 0.02 0.02 62 1011.9
20260903143047 64 259 0.0 0.0 0.00 0.02 0.02 62 1011.4
20260903142845 64 259 0.0 0.0 0.00 0.02 0.02 62 1011.7
20260903142346 64 258 0.0 0.0 0.00 0.02 0.02 63 1011.7
20260903141844 64 259 0.0 0.0 0.00 0.02 0.02 63 1011.7
20260903141544 63 259 0.0 0.0 0.00 0.02 0.02 62 1011.4
20260903141341 64 259 0.0 0.0 0.00 0.02 0.02 62 1011.7
20260903140837 64 258 0.0 0.0 0.00 0.02 0.02 63 1011.9
20260903140337 64 259 0.0 0.0 0.00 0.02 0.02 63 1012.0
20260903140109 63 259 0.0 0.0 0.00 0.02 0.02 63 1011.8
20260903135853 63 259 0.0 0.0 0.00 0.02 0.02 63 1012.0
20260903135351 63 244 0.0 0.0 0.00 0.02 0.02 63 1012.0
20260903134847 63 244 0.0 0.0 0.00 0.02 0.02 63 1012.0
20260903134546 62 244 0.0 0.0 0.00 0.02 0.02 63 1011.8
20260903134345 63 244 0.0 0.0 0.00 0.02 0.02 63 1012.1
20260903133842 63 244 0.0 0.0 0.00 0.02 0.02 64 1012.1
20260903133402 62 288 0.0 0.0 0.00 0.02 0.02 63 1012.1
20260903133037 62 288 0.0 0.0 0.00 0.02 0.02 64 1011.8
20260903132935 63 288 0.0 0.0 0.00 0.02 0.02 64 1012.0
20260903132350 62 288 0.0 0.0 0.00 0.02 0.02 64 1011.9
20260903131847 62 288 0.0 0.0 0.00 0.02 0.02 64 1011.9
20260903131550 62 288 0.0 0.0 0.00 0.02 0.02 64 1011.6
20260903131349 62 288 0.0 0.0 0.00 0.02 0.02 64 1012.0
20260903130843 62 288 0.0 0.0 0.00 0.02 0.02 64 1012.0
20260903130344 62 288 0.0 0.0 0.00 0.02 0.02 64 1012.1
20260903130042 61 288 0.0 0.0 0.00 0.02 0.02 64 1011.7
20260903125344 62 288 0.0 0.0 0.00 0.02 0.02 64 1012.1
20260903124838 62 288 0.0 0.0 0.00 0.02 0.02 64 1012.1
20260903124610 61 288 0.0 0.0 0.00 0.02 0.02 65 1011.9
20260903124359 62 288 0.0 0.0 0.00 0.02 0.02 65 1012.2
20260903123850 62 288 0.0 0.0 0.00 0.02 0.02 65 1012.2
20260903123349 61 288 0.0 0.0 0.00 0.02 0.02 65 1012.2
20260903123046 61 288 0.0 0.0 0.00 0.02 0.02 65 1011.9
20260903122845 61 288 0.0 0.0 0.00 0.02 0.02 65 1012.3
20260903122344 61 288 0.0 0.0 0.00 0.02 0.02 65 1012.5
20260903121858 61 288 0.0 0.0 0.00 0.02 0.02 65 1012.7
20260903121559 60 288 0.0 0.0 0.00 0.02 0.02 65 1012.3
20260903121358 61 288 0.0 0.0 0.00 0.02 0.02 65 1012.6
20260903120855 61 288 0.0 0.0 0.00 0.02 0.02 65 1012.7
20260903120353 61 288 0.0 0.0 0.00 0.02 0.02 65 1012.7
20260903115851 61 288 0.0 0.0 0.00 0.02 0.02 65 1012.6
20260903115346 61 288 0.0 0.0 0.00 0.02 0.02 65 1012.6
20260903114841 61 288 0.0 0.0 0.00 0.02 0.02 65 1012.8
20260903114541 60 288 0.0 0.0 0.00 0.02 0.02 65 1012.4
20260903114340 61 288 0.0 0.0 0.00 0.02 0.02 65 1012.8
20260903113849 61 288 0.0 0.0 0.00 0.02 0.02 65 1013.0
20260903113348 61 288 0.0 0.0 0.00 0.02 0.02 65 1012.9
20260903113047 60 288 0.0 0.0 0.00 0.02 0.02 65 1012.5
20260903112845 61 288 0.0 0.0 0.00 0.02 0.02 65 1012.8
20260903112345 61 288 0.0 0.0 0.00 0.02 0.02 65 1012.9
20260903111845 61 288 0.0 0.0 0.00 0.02 0.02 65 1013.0
20260903111546 60 288 0.0 0.0 0.00 0.02 0.02 65 1012.7
20260903111345 61 288 0.0 0.0 0.00 0.02 0.02 65 1013.0
20260903110843 61 288 0.0 0.0 0.00 0.02 0.02 65 1012.9
20260903110404 60 288 0.0 0.0 0.00 0.02 0.02 65 1012.9
20260903110036 60 288 0.0 0.0 0.00 0.02 0.02 65 1012.5
20260903105836 60 288 0.0 0.0 0.00 0.02 0.02 65 1012.8
20260903105356 61 288 0.0 0.0 0.00 0.02 0.02 65 1012.9
20260903104853 60 288 0.0 0.0 0.00 0.02 0.02 65 1012.9
20260903104550 60 288 0.0 0.0 0.00 0.02 0.02 65 1012.5
20260903104347 60 288 0.0 0.0 0.00 0.02 0.02 65 1012.7
20260903103904 60 288 0.0 0.0 0.00 0.02 0.02 65 1012.8
20260903103341 60 288 0.0 0.0 0.00 0.02 0.02 65 1012.9
20260903103017 60 288 0.0 0.0 0.01 0.02 0.02 65 1012.3
20260903102916 61 288 0.0 0.0 0.01 0.02 0.02 65 1012.8
20260903102349 61 288 0.0 0.0 0.02 0.02 0.02 65 1012.7
20260903101845 61 288 0.0 0.0 0.02 0.02 0.02 64 1012.6
20260903101549 60 288 0.0 0.0 0.02 0.02 0.02 64 1012.4
20260903101345 61 288 0.0 0.0 0.02 0.02 0.02 64 1012.9
20260903100842 61 288 0.0 0.0 0.02 0.02 0.02 64 1012.9
20260903100341 61 288 0.0 0.0 0.02 0.02 0.02 64 1013.0
20260903100038 60 288 0.0 0.0 0.02 0.02 0.02 64 1012.7
20260903095836 61 288 0.0 0.0 0.02 0.02 0.02 64 1012.9
20260903095335 61 288 0.0 0.0 0.02 0.02 0.02 64 1012.9
20260903094852 61 288 0.0 0.0 0.02 0.02 0.02 64 1012.8
20260903094512 60 288 0.0 0.0 0.02 0.02 0.02 63 1012.4
20260903094410 61 288 0.0 0.0 0.02 0.02 0.02 63 1012.9
20260903093844 61 288 0.0 0.0 0.02 0.02 0.02 63 1012.9
20260903093340 61 288 0.0 0.0 0.02 0.02 0.02 63 1012.9
20260903093045 61 288 0.0 0.0 0.01 0.01 0.01 63 1012.7
20260903092837 61 288 0.0 0.0 0.01 0.01 0.01 63 1013.0
20260903092357 61 288 0.0 0.0 0.00 0.00 0.00 63 1012.9
20260903091854 61 288 0.0 0.0 0.00 0.00 0.00 63 1012.9
20260903091554 61 288 0.0 0.0 0.00 0.00 0.00 63 1012.7
20260903091352 61 289 0.0 0.0 0.00 0.00 0.00 63 1013.0
20260903090849 61 293 0.0 0.0 0.00 0.00 0.00 62 1013.1
20260903090349 61 293 0.0 0.0 0.00 0.00 0.00 62 1013.1
20260903090047 61 293 0.0 0.0 0.00 0.00 0.00 62 1012.9
20260903085846 61 293 0.0 0.0 0.00 0.00 0.00 62 1013.1
20260903085346 61 293 0.0 0.0 0.00 0.00 0.00 62 1013.3
20260903084844 61 293 0.0 0.0 0.00 0.00 0.00 62 1013.3
20260903084502 61 293 0.0 0.0 0.00 0.00 0.00 62 1013.0
20260903084401 61 293 0.0 0.0 0.00 0.00 0.00 62 1013.2
20260903083836 61 293 0.0 0.0 0.00 0.00 0.00 62 1013.3
20260903083336 62 293 0.0 0.0 0.00 0.00 0.00 62 1013.4
20260903083050 61 293 0.0 0.0 0.00 0.00 0.00 62 1013.0
20260903082850 62 293 0.0 0.0 0.00 0.00 0.00 62 1013.3
20260903082348 62 293 0.0 0.0 0.00 0.00 0.00 62 1013.3
20260903081843 62 293 0.0 0.0 0.00 0.00 0.00 62 1013.2
20260903081543 61 293 0.0 0.0 0.00 0.00 0.00 61 1012.9
20260903081341 62 293 0.0 0.0 0.00 0.00 0.00 61 1013.3
20260903080838 62 293 0.0 0.0 0.00 0.00 0.00 62 1013.7
20260903080338 62 293 0.0 0.0 0.00 0.00 0.00 61 1013.5
20260903080106 61 293 0.0 0.0 0.00 0.00 0.00 61 1013.1
20260903075855 62 293 0.0 0.0 0.00 0.00 0.00 61 1013.5
20260903075351 62 293 0.0 0.0 0.00 0.00 0.00 61 1013.4
20260903074905 62 292 0.0 0.0 0.00 0.00 0.00 61 1013.4
20260903074557 61 293 0.0 0.0 0.00 0.00 0.00 61 1013.1
20260903074343 62 293 0.0 0.0 0.00 0.00 0.00 61 1013.6
20260903073901 62 175 0.0 0.0 0.00 0.00 0.00 61 1013.8
20260903073340 62 175 0.0 0.0 0.00 0.00 0.00 62 1013.7
20260903073040 61 175 0.0 0.0 0.00 0.00 0.00 62 1013.3
20260903072835 62 175 0.0 0.0 0.00 0.00 0.00 62 1013.7
20260903072354 62 175 0.0 0.0 0.00 0.00 0.00 62 1013.5
20260903071851 62 175 0.0 0.0 0.00 0.00 0.00 62 1013.6
20260903071603 61 175 0.0 0.0 0.00 0.00 0.00 62 1013.3
20260903071350 62 175 0.0 0.0 0.00 0.00 0.00 62 1013.6
20260903070848 62 175 0.0 0.0 0.00 0.00 0.00 62 1013.6
20260903070347 62 175 0.0 0.0 0.00 0.00 0.00 62 1013.5
20260903070041 61 175 0.0 0.0 0.00 0.00 0.00 62 1013.3
20260903065840 62 175 0.0 0.0 0.00 0.00 0.00 62 1013.8
20260903065339 62 175 0.0 0.0 0.00 0.00 0.00 62 1013.8
20260903064855 62 175 0.0 0.0 0.00 0.00 0.00 62 1013.8
20260903064556 61 175 0.0 0.0 0.00 0.00 0.00 61 1013.5
20260903064354 62 175 0.0 0.0 0.00 0.00 0.00 61 1014.0
20260903063850 62 175 0.0 0.0 0.00 0.00 0.00 62 1014.2
20260903063350 62 175 0.0 0.0 0.00 0.00 0.00 62 1014.3
20260903063048 62 175 0.0 0.0 0.00 0.00 0.00 62 1014.1
20260903062847 62 175 0.0 0.0 0.00 0.00 0.00 62 1014.6
20260903062347 62 175 0.0 0.0 0.00 0.00 0.00 62 1014.7
20260903061843 62 175 0.0 0.0 0.00 0.00 0.00 61 1014.9
20260903061546 62 175 0.0 0.0 0.00 0.00 0.00 61 1014.7
20260903061343 62 175 0.0 0.0 0.00 0.00 0.00 61 1015.0
20260903060838 62 175 0.0 0.0 0.00 0.00 0.00 61 1015.1
20260903060335 62 175 0.0 0.0 0.00 0.00 0.00 61 1015.3
20260903060014 62 175 0.0 0.0 0.00 0.00 0.00 61 1015.0
20260903055912 62 175 0.0 0.0 0.00 0.00 0.00 61 1015.4
20260903055349 63 175 0.0 0.0 0.00 0.00 0.00 61 1015.5
20260903054845 63 175 0.0 0.0 0.00 0.00 0.00 61 1015.5
20260903054548 62 175 0.0 0.0 0.00 0.00 0.00 60 1015.2
20260903054345 63 176 0.0 0.0 0.00 0.00 0.00 61 1015.5
20260903053840 63 177 0.0 0.0 0.00 0.00 0.00 60 1015.6
20260903053359 63 179 0.0 0.0 0.00 0.00 0.00 61 1015.8
20260903053035 62 179 0.0 0.0 0.00 0.00 0.00 60 1015.4
20260903052833 63 179 0.0 0.0 0.00 0.00 0.00 60 1015.7
20260903052355 63 179 0.0 0.0 0.00 0.00 0.00 60 1015.7
20260903051847 63 179 0.0 0.0 0.00 0.00 0.00 60 1015.7
20260903051547 62 179 0.0 0.0 0.00 0.00 0.00 60 1015.3
20260903051345 63 179 0.0 0.0 0.00 0.00 0.00 60 1015.6
20260903050843 63 181 0.0 0.0 0.00 0.00 0.00 60 1015.6
20260903050403 63 190 0.0 0.0 0.00 0.00 0.00 60 1015.6
20260903050039 62 132 0.0 0.0 0.00 0.00 0.00 60 1015.2
20260903045838 63 132 0.0 0.0 0.00 0.00 0.00 60 1015.6
20260903045338 63 131 0.0 0.0 0.00 0.00 0.00 60 1015.6
20260903044834 63 131 0.0 0.0 0.00 0.00 0.00 60 1015.5
20260903044558 62 131 0.0 0.0 0.00 0.00 0.00 60 1015.1
20260903044353 63 131 0.0 0.0 0.00 0.00 0.00 60 1015.6
20260903043850 63 132 0.0 0.0 0.00 0.00 0.00 60 1015.6
20260903043409 63 134 0.0 0.0 0.00 0.00 0.00 60 1015.7
20260903043042 62 134 0.0 0.0 0.00 0.00 0.00 60 1015.4
20260903042841 63 136 0.0 0.0 0.00 0.00 0.00 60 1015.8
20260903042339 62 169 0.0 0.0 0.00 0.00 0.00 60 1016.0
20260903041835 62 169 0.0 0.0 0.00 0.00 0.00 60 1016.0
20260903041557 62 169 0.0 0.0 0.00 0.00 0.00 60 1015.6
20260903041356 62 198 0.0 0.0 0.00 0.00 0.00 60 1016.0
20260903040852 62 200 0.0 0.0 0.00 0.00 0.00 61 1016.1
20260903040351 62 200 0.0 1.0 0.00 0.00 0.00 61 1016.0
20260903040054 62 200 0.0 1.0 0.00 0.00 0.00 61 1015.6
20260903035848 62 219 0.0 1.0 0.00 0.00 0.00 61 1016.0
20260903035347 62 231 0.0 1.0 0.00 0.00 0.00 61 1015.9
20260903034840 62 231 0.0 1.0 0.00 0.00 0.00 61 1015.9
20260903034548 62 238 0.0 1.0 0.00 0.00 0.00 61 1015.7
20260903034339 62 239 0.0 0.0 0.00 0.00 0.00 61 1015.9
20260903033849 62 239 0.0 0.0 0.00 0.00 0.00 62 1015.9
20260903033349 63 239 0.0 0.0 0.00 0.00 0.00 62 1016.1
20260903033046 62 239 0.0 0.0 0.00 0.00 0.00 62 1015.8
20260903032844 63 239 0.0 0.0 0.00 0.00 0.00 62 1016.2
20260903032343 63 239 0.0 0.0 0.00 0.00 0.00 61 1016.2
20260903031841 63 239 0.0 0.0 0.00 0.00 0.00 61 1016.4
20260903031557 62 239 0.0 0.0 0.00 0.00 0.00 61 1016.1
20260903031340 63 239 0.0 0.0 0.00 0.00 0.00 61 1016.5
20260903030836 63 239 0.0 0.0 0.00 0.00 0.00 61 1016.4
20260903030336 63 239 0.0 0.0 0.00 0.00 0.00 61 1016.4
20260903030054 62 239 0.0 1.0 0.00 0.00 0.00 61 1016.2
20260903025849 63 239 0.0 1.0 0.00 0.00 0.00 61 1016.6
20260903025346 63 239 0.0 1.0 0.00 0.00 0.00 61 1016.5
20260903024840 63 239 0.0 0.0 0.00 0.00 0.00 61 1016.5
20260903024541 62 239 0.0 0.0 0.00 0.00 0.00 61 1016.3
20260903024340 63 239 0.0 0.0 0.00 0.00 0.00 61 1016.7
20260903023834 63 239 0.0 0.0 0.00 0.00 0.00 61 1016.6
20260903023354 63 239 0.0 0.0 0.00 0.00 0.00 61 1016.7
20260903023051 62 239 0.0 0.0 0.00 0.00 0.00 61 1016.3
20260903022849 63 239 0.0 0.0 0.00 0.00 0.00 61 1016.7
20260903022408 63 239 0.0 0.0 0.00 0.00 0.00 61 1016.8
20260903021845 63 239 0.0 0.0 0.00 0.00 0.00 61 1016.9
20260903021547 62 239 0.0 0.0 0.00 0.00 0.00 61 1016.7
20260903021346 63 239 0.0 0.0 0.00 0.00 0.00 61 1017.0
20260903020844 63 239 0.0 0.0 0.00 0.00 0.00 61 1017.2
20260903020342 63 239 0.0 0.0 0.00 0.00 0.00 61 1016.9
20260903020040 62 239 0.0 0.0 0.00 0.00 0.00 61 1016.7
20260903015838 63 239 0.0 0.0 0.00 0.00 0.00 61 1017.1
20260903015414 63 239 0.0 0.0 0.00 0.00 0.00 61 1017.1
20260903014848 63 239 0.0 1.0 0.00 0.00 0.00 60 1017.0
20260903014553 62 243 0.0 1.0 0.00 0.00 0.00 60 1016.8
20260903014344 63 243 0.0 1.0 0.00 0.00 0.00 61 1017.1
20260903013841 63 243 0.0 0.0 0.00 0.00 0.00 61 1017.3
20260903013342 63 243 0.0 0.0 0.00 0.00 0.00 61 1017.4
20260903013040 62 243 0.0 0.0 0.00 0.00 0.00 60 1017.0
20260903012838 63 243 0.0 0.0 0.00 0.00 0.00 60 1017.3
20260903012348 62 243 0.0 1.0 0.00 0.00 0.00 60 1017.2
20260903011841 62 243 0.0 1.0 0.00 0.00 0.00 60 1017.2
20260903011541 62 129 0.0 0.0 0.00 0.00 0.00 60 1016.9
20260903011340 62 128 0.0 0.0 0.00 0.00 0.00 60 1017.1
20260903010850 63 128 0.0 0.0 0.00 0.00 0.00 60 1016.6
20260903010410 63 128 0.0 0.0 0.00 0.00 0.00 59 1016.5
20260903010008 62 128 0.0 0.0 0.00 0.00 0.00 60 1016.5
20260903005905 63 128 0.0 0.0 0.00 0.00 0.00 60 1016.7
20260903005343 63 128 0.0 0.0 0.00 0.00 0.00 60 1016.7
20260903004838 63 128 0.0 0.0 0.00 0.00 0.00 60 1016.6
20260903004547 63 128 0.0 0.0 0.00 0.00 0.00 60 1016.3
20260903004338 63 128 0.0 0.0 0.00 0.00 0.00 59 1016.7
20260903003915 63 128 0.0 0.0 0.00 0.00 0.00 59 1016.9
20260903003353 64 128 0.0 0.0 0.00 0.00 0.00 59 1017.0
20260903003055 63 128 0.0 0.0 0.00 0.00 0.00 59 1016.7
20260903002847 64 128 0.0 0.0 0.00 0.00 0.00 59 1016.9
20260903002348 64 128 0.0 0.0 0.00 0.00 0.00 58 1016.9
20260903001844 64 129 0.0 0.0 0.00 0.00 0.00 58 1017.0
20260903001544 64 129 0.0 0.0 0.00 0.00 0.00 58 1016.7
20260903001344 64 129 0.0 0.0 0.00 0.00 0.00 58 1017.1
20260903000854 64 129 0.0 0.0 0.00 0.00 0.00 58 1017.0
20260903000355 64 125 0.0 0.0 0.00 0.00 0.00 58 1017.1
20260903000012 64 125 0.0 0.0 0.00 0.00 0.00 58 1016.8
20260902235911 64 125 0.0 0.0 0.00 0.00 0.00 58 1017.0
20260902235348 64 125 0.0 0.0 0.00 0.00 0.00 57 1016.9
20260902234843 65 127 0.0 0.0 0.00 0.00 0.00 58 1017.1
20260902234557 64 271 0.0 0.0 0.00 0.00 0.00 58 1016.9
20260902234345 65 271 0.0 0.0 0.00 0.00 0.00 58 1017.2
20260902233357 65 271 0.0 0.0 0.00 0.00 0.00 58 1017.5
20260902233102 64 271 0.0 0.0 0.00 0.00 0.00 59 1017.1
20260902232854 65 271 0.0 0.0 0.00 0.00 0.00 59 1017.7
20260902232354 65 271 0.0 0.0 0.00 0.00 0.00 59 1017.7
20260902231931 65 271 0.0 0.0 0.00 0.00 0.00 59 1017.9
20260902231546 65 271 0.0 0.0 0.00 0.00 0.00 59 1017.5
20260902231344 65 271 0.0 0.0 0.00 0.00 0.00 59 1017.8
20260902230842 65 271 0.0 0.0 0.00 0.00 0.00 59 1017.9
20260902230341 65 271 0.0 0.0 0.00 0.00 0.00 58 1018.0
20260902230045 65 271 0.0 0.0 0.00 0.00 0.00 58 1017.6
20260902225337 66 271 0.0 0.0 0.00 0.00 0.00 59 1018.1
20260902224835 66 271 0.0 0.0 0.00 0.00 0.00 59 1018.1
20260902224516 66 271 0.0 0.0 0.00 0.00 0.00 59 1017.8
20260902224350 66 271 0.0 0.0 0.00 0.00 0.00 59 1018.2
20260902223850 66 271 0.0 0.0 0.00 0.00 0.00 59 1018.0
20260902223345 67 130 0.0 0.0 0.00 0.00 0.00 59 1017.9
20260902223045 66 130 0.0 0.0 0.00 0.00 0.00 58 1017.7
20260902222411 67 130 0.0 0.0 0.00 0.00 0.00 59 1018.1
20260902221847 67 131 0.0 0.0 0.00 0.00 0.00 59 1018.2
20260902221543 67 131 0.0 0.0 0.00 0.00 0.00 59 1018.0
20260902221341 67 131 0.0 0.0 0.00 0.00 0.00 59 1018.2
20260902220838 67 131 0.0 0.0 0.00 0.00 0.00 59 1018.2
20260902220338 68 130 0.0 0.0 0.00 0.00 0.00 59 1018.2
20260902220059 67 130 0.0 0.0 0.00 0.00 0.00 59 1017.9
20260902215853 68 131 0.0 0.0 0.00 0.00 0.00 59 1018.2
20260902215353 68 131 0.0 0.0 0.00 0.00 0.00 59 1018.2
20260902214849 68 123 0.0 0.0 0.00 0.00 0.00 59 1018.3
20260902214547 68 123 0.0 0.0 0.00 0.00 0.00 59 1017.8
20260902214346 68 122 0.0 0.0 0.00 0.00 0.00 58 1018.2
20260902213843 68 123 0.0 0.0 0.00 0.00 0.00 59 1018.0
20260902213344 68 123 0.0 0.0 0.00 0.00 0.00 58 1018.0
20260902213041 67 113 0.0 0.0 0.00 0.00 0.00 58 1017.7
20260902212840 68 113 0.0 0.0 0.00 0.00 0.00 58 1018.0
20260902212341 68 112 0.0 0.0 0.00 0.00 0.00 57 1017.8
20260902211850 68 124 0.0 0.0 0.00 0.00 0.00 57 1018.0
20260902211551 68 125 0.0 0.0 0.00 0.00 0.00 56 1017.7
20260902211348 68 125 0.0 0.0 0.00 0.00 0.00 56 1018.1
20260902210843 69 125 0.0 1.0 0.00 0.00 0.00 57 1017.9
20260902210342 69 125 0.0 1.0 0.00 0.00 0.00 56 1018.0
20260902210046 69 124 0.0 2.0 0.00 0.02 0.00 57 1017.6
20260902205839 69 121 0.0 3.0 0.00 0.02 0.00 57 1017.8
20260902205338 69 122 1.0 3.0 0.00 0.02 0.00 56 1017.7
20260902204854 69 105 1.0 3.0 0.00 0.02 0.00 55 1017.8
20260902204554 68 113 0.0 2.0 0.00 0.02 0.00 55 1017.6
20260902204354 69 113 0.0 3.0 0.00 0.02 0.00 54 1018.0
20260902203851 69 105 1.0 3.0 0.00 0.02 0.00 54 1018.1
20260902203404 69 124 0.0 2.0 0.00 0.02 0.00 55 1018.2
20260902203057 69 110 0.0 2.0 0.00 0.02 0.00 55 1017.9
20260902202839 70 108 1.0 2.0 0.00 0.02 0.00 54 1018.2
20260902202336 70 105 1.0 2.0 0.00 0.02 0.00 52 1018.1
20260902201851 70 107 1.0 3.0 0.00 0.02 0.00 53 1018.3
20260902201517 70 103 0.0 3.0 0.00 0.02 0.00 55 1018.1
20260902201411 71 103 1.0 3.0 0.00 0.02 0.00 53 1018.2
20260902200905 71 95 1.0 2.0 0.00 0.02 0.00 55 1018.3
20260902200343 71 108 1.0 3.0 0.00 0.02 0.00 55 1018.3
20260902200052 71 96 0.0 3.0 0.00 0.04 0.00 54 1018.1
20260902195841 71 133 1.0 3.0 0.00 0.04 0.00 54 1018.4
20260902195358 71 97 1.0 3.0 0.00 0.04 0.00 53 1018.4
20260902194912 71 113 1.0 3.0 0.00 0.04 0.00 55 1018.5
20260902194549 71 121 1.0 3.0 0.00 0.04 0.00 54 1018.2
20260902194348 71 114 1.0 4.0 0.00 0.04 0.00 53 1018.5
20260902193906 71 124 2.0 4.0 0.00 0.04 0.00 54 1018.4
20260902193406 71 101 0.0 2.0 0.00 0.04 0.00 54 1018.4
20260902193041 71 107 0.0 2.0 0.00 0.04 0.00 53 1018.2
20260902192852 71 111 0.0 2.0 0.00 0.04 0.00 55 1018.5
20260902192346 71 118 0.0 2.0 0.00 0.04 0.00 55 1018.5
20260902191903 70 108 1.0 2.0 0.00 0.04 0.00 55 1018.5
20260902191558 70 131 1.0 2.0 0.00 0.04 0.00 56 1018.4
20260902191356 70 121 0.0 2.0 0.00 0.04 0.00 56 1018.8
20260902190852 70 113 1.0 2.0 0.00 0.04 0.00 55 1018.9
20260902190352 70 104 0.0 0.0 0.00 0.04 0.00 57 1018.7
20260902190050 69 103 0.0 0.0 0.00 0.04 0.00 56 1018.5
20260902185847 70 118 0.0 0.0 0.00 0.09 0.00 57 1018.8
20260902185346 70 125 0.0 0.0 0.00 0.09 0.00 56 1018.8
20260902184843 70 125 0.0 0.0 0.00 0.09 0.00 58 1018.8
20260902184606 69 125 0.0 0.0 0.00 0.09 0.00 58 1018.6
20260902184403 70 125 0.0 0.0 0.00 0.09 0.00 58 1018.8
20260902183840 69 125 0.0 2.0 0.00 0.09 0.00 58 1018.7
20260902183341 70 125 0.0 2.0 0.00 0.09 0.00 57 1018.6
20260902183102 69 129 0.0 0.0 0.00 0.09 0.00 57 1018.3
20260902182850 70 129 0.0 0.0 0.00 0.09 0.00 56 1018.7
20260902182351 70 129 0.0 0.0 0.00 0.09 0.00 56 1018.7
20260902181848 70 129 0.0 0.0 0.00 0.09 0.00 57 1018.7
20260902181549 69 129 0.0 1.0 0.00 0.09 0.00 56 1018.4
20260902181346 70 129 0.0 1.0 0.00 0.09 0.00 55 1018.7
20260902180843 70 130 1.0 1.0 0.00 0.09 0.00 56 1018.7
20260902180342 70 102 0.0 1.0 0.00 0.09 0.00 58 1018.9
20260902180039 69 102 0.0 1.0 0.00 0.10 0.00 58 1018.6
20260902175835 69 102 0.0 1.0 0.00 0.10 0.00 57 1018.9
20260902175336 69 102 0.0 1.0 0.00 0.10 0.00 57 1018.8
20260902174853 69 102 0.0 2.0 0.00 0.10 0.00 57 1018.9
20260902174553 69 102 0.0 2.0 0.00 0.10 0.00 56 1018.6
20260902174349 69 101 0.0 2.0 0.00 0.10 0.00 56 1018.7
20260902173847 70 238 0.0 2.0 0.00 0.10 0.00 56 1018.8
20260902173346 70 117 0.0 1.0 0.00 0.10 0.00 56 1018.8
20260902173040 69 101 0.0 2.0 0.00 0.10 0.00 57 1018.6
20260902172839 69 91 0.0 2.0 0.00 0.10 0.00 55 1018.8
20260902172339 70 98 1.0 2.0 0.00 0.10 0.00 55 1018.8
20260902171835 70 117 0.0 1.0 0.00 0.10 0.00 55 1018.7